EHI
0 0 0 0 0 0 0 0 0 0 0 0 0 0 0 0 0 0 0 0 0 0 0 0 0 0 0 0 0 0 0 0 0 0 0 0 0 0 0 0 0 0 0
0 0 0 0 0 0 0 0 0 0 0 0 0 0 0 0 0 0 0 0 0 0 0 0 0 0 0 0 0 0 0 0 0 0 0 0 0 0 0 0 0 0 0
0 0 0 0 0 0 0 0 0 0 0 0 0 0 0 0 0 0 0 0 0 0 0 0 0 0 0 0 0 0 0 0 0 0 0 0 0 0 0 0 0 0 0
0 0 0 0 0 0 0 0 0 0 0 0 1 0 0 0 0 0 0 0 0 0 0 0 0 0 0 0 0 0 0 0 0 0 0 0 0 0 0 0 0 0 0
0 0 0 0 0 0 0 0 0 0 0 0 0 0 0 0 0 0 0 0 0 0 0 0 0 0 0 0 0 0 0 0 0 0 0 0 1 2 1 0 0 0 0
0 0 0 0 0 0 0 0 0 0 0 0 0 0 0 0 0 0 0 0 0 0 0 0 0 0 0 0 0 0 0 0 0 0 0 0 5 10 5 0 0 0 1
0 0 0 0 0 0 0 0 0 0 0 0 0 0 0 0 0 0 0 0 0 0 0 0 0 0 0 0 0 0 0 0 0 0 0 0 10 17 9 0 0 1 2
0 0 0 0 0 0 0 0 0 0 0 0 0 0 0 0 0 0 0 0 0 0 0 0 0 0 0 0 0 0 0 0 0 0 0 3 11 14 6 0 0 1 2
0 0 0 0 0 0 0 0 0 0 0 0 0 0 0 0 0 0 0 0 0 0 0 0 0 0 0 0 0 0 0 0 0 0 0 6 12 8 1 0 0 2 3
0 0 0 0 0 0 0 0 0 0 0 0 0 0 0 0 0 0 0 0 0 0 0 0 0 0 0 0 0 0 0 0 0 0 0 7 13 7 0 0 0 1 2
0 0 0 0 0 0 0 0 0 0 0 0 0 0 0 0 0 0 0 0 0 0 0 0 0 0 0 0 0 0 0 0 0 0 2 8 9 4 0 0 0 1 2
0 0 0 0 0 0 0 0 0 0 0 0 0 0 0 0 0 0 0 0 0 0 0 0 0 0 0 0 0 0 0 0 0 0 6 12 8 1 0 0 1 2 2
0 0 0 0 0 0 0 0 0 0 0 0 0 0 0 0 0 0 0 0 0 0 0 0 0 0 0 0 0 0 0 0 0 0 7 13 7 0 0 0 1 2 2
0 0 0 0 0 0 0 0 0 0 0 0 0 0 0 0 0 0 0 0 0 0 0 0 0 0 0 0 0 0 0 0 0 0 4 6 3 0 0 0 0 1 1
0 0 0 0 0 0 0 0 0 0 0 0 0 0 0 0 0 0 0 0 0 0 0 0 0 0 0 0 0 0 0 0 0 0 1 0 0 0 0 0 0 0 0
0 0 0 0 0 0 0 0 0 0 0 0 0 0 0 0 0 0 0 0 0 0 0 0 0 0 0 0 0 0 0 0 0 0 0 0 0 0 0 0 0 0 0
1 1 0 0 0 0 0 0 0 0 0 0 0 0 0 0 0 0 0 0 0 0 0 0 0 0 0 0 0 0 0 0 0 0 0 0 0 0 0 0 0 0 0
2 2 1 0 0 0 0 1 0 0 0 0 0 0 0 0 0 0 0 0 0 0 0 0 0 0 0 0 0 0 0 0 0 0 0 0 0 0 0 0 0 0 0
3 3 1 0 0 1 3 6 5 3 2 1 0 0 0 0 0 0 0 0 0 0 0 0 0 0 0 0 0 0 0 0 0 0 0 0 0 0 0 0 0 0 0
6 5 3 1 1 6 12 17 18 17 14 8 3 1 0 0 0 0 0 0 0 0 0 0 0 0 0 0 0 0 0 0 0 0 0 0 0 0 0 0 0 0 0
21 17 12 8 9 17 26 32 33 32 27 18 10 3 0 1 1 0 0 0 0 0 0 0 0 0 0 0 0 0 0 0 0 0 0 0 0 0 0 0 0 0 0
48 39 26 20 23 30 37 42 41 39 35 29 22 12 4 2 2 1 1 0 0 0 0 0 0 0 0 0 0 0 0 0 0 0 0 0 0 0 0 0 0 0 0
60 51 38 32 35 40 44 45 43 41 37 35 33 26 13 5 2 1 0 0 0 0 0 0 0 0 0 0 0 0 0 0 0 0 0 0 0 0 0 0 0 0 0
57 53 47 47 50 51 50 49 45 40 34 33 33 28 16 6 2 0 0 0 0 0 0 0 0 0 0 0 1 1 0 0 0 0 0 0 0 0 0 0 0 0 0
67 66 66 69 71 66 58 53 46 34 27 23 21 17 10 4 1 0 0 0 1 1 0 0 0 0 0 0 1 1 2 3 2 1 1 1 0 0 0 0 0 0 0
84 82 82 84 84 76 66 56 44 30 21 16 11 8 5 2 0 0 0 1 2 2 1 0 0 0 0 0 1 1 3 5 4 3 2 2 1 0 0 0 0 0 0
Wind_Speed
11 14 16 13 12 12 13 13 13 15 16 16 15 14 13 11 10 9 9 8 9 10 11 10 9 8 9 10 11 12 12 12 11 11 11 10 10 9 9 7 7 11 10
14 15 15 13 12 12 12 12 13 14 16 16 15 14 13 12 11 10 9 9 9 10 10 10 9 8 9 10 11 11 11 11 10 11 11 10 9 8 7 6 8 9 9
15 15 15 13 12 12 12 12 13 14 16 15 14 13 12 11 11 10 9 9 9 9 9 9 9 9 9 9 9 9 9 9 9 9 9 8 9 7 7 8 8 9 8
15 14 14 15 13 12 12 12 12 14 14 14 14 13 12 11 10 10 9 9 9 9 8 8 8 8 8 8 8 8 8 8 9 8 9 6 8 10 7 8 8 8 7
14 13 15 15 13 13 12 12 12 13 13 13 13 12 11 10 10 9 9 9 8 8 7 7 7 7 8 8 8 8 8 8 8 10 5 4 4 11 8 8 8 8 7
14 14 15 14 14 12 12 12 12 12 12 12 12 11 10 9 9 8 8 7 7 7 6 6 6 6 6 6 7 8 8 8 9 9 5 6 5 11 9 9 8 8 8
14 13 16 14 14 12 11 11 11 11 11 11 10 9 8 8 8 8 7 6 6 6 5 5 5 5 5 6 6 6 8 9 11 6 6 7 3 10 9 9 9 9 9
12 12 14 14 13 13 12 11 10 10 10 10 9 8 7 7 6 6 6 6 5 5 5 5 5 5 6 6 6 7 7 9 10 8 8 7 5 6 9 10 10 10 10
12 12 12 13 13 12 11 11 11 10 9 9 8 7 7 7 6 5 5 5 5 5 5 5 6 6 7 7 8 8 8 9 12 7 8 6 7 8 11 12 12 12 12
10 10 11 11 11 12 12 10 9 9 9 8 7 7 7 6 7 6 7 6 5 5 5 6 6 7 7 8 9 9 9 10 14 11 7 5 8 9 12 13 14 14 14
9 8 9 11 9 9 10 11 10 9 8 9 9 8 8 9 9 9 6 5 4 5 6 7 7 8 8 11 11 10 10 10 12 9 6 4 7 9 11 13 14 15 16
13 11 8 9 9 9 7 8 7 8 9 8 6 8 8 4 3 4 8 5 6 6 8 8 8 9 11 8 11 13 8 11 10 7 6 7 7 11 13 14 14 15 16
13 12 11 9 9 8 6 6 5 5 5 7 6 6 4 4 5 5 5 8 8 8 7 8 9 7 5 4 4 6 6 7 6 6 5 9 9 12 15 15 16 16 17
14 13 12 10 9 8 7 6 5 5 5 5 7 7 6 4 4 4 3 3 4 4 3 3 3 3 4 5 6 6 6 5 5 5 3 6 8 12 14 15 16 16 17
13 13 12 11 10 9 7 6 6 6 6 6 5 6 6 5 5 3 3 3 5 3 4 4 4 3 5 5 5 5 6 6 7 6 4 7 10 11 12 14 15 16 16
14 14 13 12 12 10 9 7 6 6 5 6 6 7 7 6 4 3 5 4 5 5 4 3 4 4 4 3 5 5 7 7 6 7 6 5 10 10 10 12 13 15 16
14 13 13 13 12 12 11 10 8 7 7 7 6 7 7 7 5 5 5 5 4 4 4 4 4 4 4 3 5 5 6 6 7 7 7 6 5 7 9 9 11 13 15
13 13 13 12 13 13 11 9 8 7 7 6 6 6 8 8 7 5 5 5 4 4 3 3 4 4 3 4 3 4 5 5 7 7 7 5 5 6 5 5 9 12 14
12 12 13 12 13 13 12 9 8 6 6 5 5 5 6 8 8 6 6 5 6 4 4 4 3 4 4 4 4 4 5 5 5 6 6 7 6 6 7 4 7 10 12
11 11 12 13 12 11 8 7 6 6 5 5 5 5 7 7 8 7 6 6 7 5 5 4 5 5 5 5 6 5 6 5 5 4 6 5 4 6 7 7 7 5 8
12 12 13 13 12 9 7 6 5 5 4 3 4 6 7 8 7 6 6 6 6 6 6 8 6 6 5 4 6 6 5 5 2 3 4 4 4 5 5 6 6 6 5
13 13 13 13 12 10 7 5 3 3 2 2 3 4 6 7 7 7 6 6 7 6 8 8 6 6 6 4 5 6 5 3 5 3 3 3 4 4 5 5 6 6 7
13 13 11 12 11 10 9 6 4 3 3 3 3 2 4 6 6 7 7 7 6 7 7 7 7 8 6 5 4 5 5 4 5 3 3 3 3 4 4 5 6 6 7
10 9 10 9 9 9 9 8 9 7 7 6 4 2 2 3 5 6 7 7 7 6 7 8 7 6 7 6 4 5 6 5 6 5 3 4 4 4 3 4 5 5 6
5 5 5 5 6 6 6 7 8 8 6 5 4 4 3 2 4 6 6 6 7 6 8 8 7 7 6 7 5 5 6 5 7 6 7 5 4 2 1 2 3 5 6
3 3 3 4 4 4 4 4 6 6 6 6 6 5 4 3 3 5 5 6 6 6 6 6 7 8 7 7 6 6 6 6 6 6 7 7 6 2 0 1 2 3 4
Wind_Direction
149 136 139 145 143 139 134 132 137 144 144 145 147 148 148 144 136 129 123 121 122 127 129 125 118 116 118 119 122 124 125 127 127 123 118 111 105 103 103 112 119 97 92
143 135 141 145 143 138 132 130 132 139 145 147 150 150 148 143 136 131 125 122 122 128 132 131 123 115 114 118 123 128 132 136 135 128 129 127 118 111 107 80 49 90 102
141 137 146 144 143 138 132 129 131 136 142 145 146 146 145 143 139 134 128 123 123 126 131 132 129 122 118 120 126 133 139 143 143 142 175 162 131 131 125 112 104 112 112
142 143 145 140 144 140 136 132 130 133 137 141 142 144 145 145 143 139 132 127 125 127 131 134 134 135 133 134 138 143 149 154 154 174 207 161 149 139 148 137 134 134 130
144 142 132 145 145 144 141 138 135 135 138 140 143 147 150 150 148 142 138 133 129 129 135 140 142 144 144 148 152 156 161 164 167 218 208 196 165 142 166 163 160 156 153
149 143 137 149 147 148 147 145 144 143 143 143 145 148 149 147 145 146 144 141 136 135 136 140 144 148 150 154 160 169 175 176 197 214 195 216 189 156 181 186 183 178 175
150 142 141 150 150 153 154 153 151 151 150 150 149 148 147 146 149 150 148 144 142 144 148 152 155 157 164 168 175 182 187 193 232 220 211 226 204 150 196 205 202 196 192
147 146 139 149 155 159 162 162 161 160 159 159 159 159 159 161 164 164 162 161 161 162 167 175 181 181 185 190 199 207 215 230 233 234 232 229 153 165 217 223 216 212 207
154 152 150 156 161 164 168 170 169 168 168 169 171 174 176 178 177 176 177 180 185 189 194 199 203 205 207 209 215 222 230 245 264 247 245 243 149 199 231 235 229 222 216
162 159 157 162 163 168 168 167 167 167 170 173 179 182 182 185 190 190 202 180 200 209 215 221 226 229 229 227 227 230 236 242 250 246 237 223 164 216 238 243 240 234 225
170 165 175 162 168 174 171 155 169 169 170 178 183 181 202 213 198 189 185 148 211 223 228 232 237 243 245 229 229 232 236 243 246 254 249 176 174 229 248 250 247 241 233
173 174 183 176 170 181 178 163 184 183 172 203 180 185 208 209 232 237 130 194 226 234 235 229 232 236 239 234 212 210 231 234 251 246 238 173 207 242 253 253 250 245 239
175 178 181 182 182 187 185 182 188 193 173 198 192 205 226 218 205 219 195 187 204 219 227 196 213 229 237 251 260 232 249 259 254 253 228 169 217 247 256 257 254 250 246
179 181 182 183 185 197 200 191 196 201 189 201 182 212 206 216 231 224 236 238 211 209 215 248 247 242 267 265 260 265 257 252 267 277 275 181 229 253 262 263 261 257 252
183 186 184 186 189 192 203 214 208 207 200 199 203 204 228 228 228 238 257 280 275 264 221 222 253 266 272 262 267 269 273 268 268 269 262 216 228 251 268 275 273 268 263
189 189 187 191 193 196 201 211 216 215 201 216 205 206 216 240 247 264 255 259 271 272 281 274 260 265 271 298 290 285 282 282 277 283 283 246 210 229 260 276 280 278 274
192 193 191 194 197 199 206 211 214 218 205 211 205 210 219 238 245 258 274 268 271 278 273 270 272 267 271 280 278 281 278 281 286 287 287 295 281 225 232 265 282 284 281
196 194 197 199 197 201 209 212 215 217 209 211 213 213 220 241 250 260 274 277 287 276 268 256 262 270 273 282 291 292 278 270 270 273 273 276 294 307 276 258 286 289 287
201 196 200 207 205 205 206 208 220 216 221 227 227 232 232 245 254 252 264 279 275 271 274 276 284 288 297 300 287 268 278 270 268 263 275 281 290 297 304 298 273 274 282
202 201 205 209 214 214 212 216 230 233 228 238 245 250 255 254 255 257 257 260 270 270 273 274 283 275 285 283 291 293 273 279 271 271 269 265 270 297 311 321 305 285 270
203 204 208 214 213 215 216 219 224 233 248 259 261 263 263 263 264 259 268 267 265 265 270 274 275 274 271 281 284 285 272 234 249 268 261 285 300 310 310 316 312 322 300
207 210 213 217 218 216 217 219 220 227 241 267 291 293 284 279 276 266 263 266 264 268 267 270 269 281 288 282 293 298 290 249 193 218 242 255 293 303 312 324 327 318 312
216 214 218 219 218 216 215 211 196 193 201 211 227 242 278 290 289 289 281 273 268 265 266 269 269 266 275 278 269 288 298 316 316 216 213 246 276 301 310 336 326 333 320
221 218 219 219 218 217 215 216 213 214 213 214 211 216 258 300 306 300 292 286 272 263 261 263 264 265 267 268 260 250 264 291 293 299 257 206 216 255 315 323 336 343 343
211 206 202 202 201 201 213 216 217 223 222 212 205 221 240 269 292 300 301 295 281 270 264 263 272 263 258 259 260 258 254 245 245 265 286 292 271 237 327 335 354 358 4
95 123 140 151 151 161 185 206 224 230 224 219 224 232 245 261 275 287 299 296 284 275 267 265 267 260 255 257 259 257 261 261 257 257 270 276 280 274 25 11 359 28 34